User: anonymous   Login
Location: Gugi
(45.4667°N, 11.1000°E)
Time: 08:03:53
(UTC+00:00)
Language:

Cosmos 2233 Rocket - Orbit

View from above orbital plane
View from above orbital plane
View from above satellite
View from above satellite

Ground track
Ground track

The orbit data is extracted from the following two-line orbital elements,

1 22488U 93008B   20025.53105755  .00000076  00000-0  60745-4 0  9993
2 22488  82.9420  89.7158 0026780  77.4749  34.7004 13.77716576355393
Epoch (UTC): 25 January 2020 12:44:43
Eccentricity: 0.0026780
inclination: 82.9420°
perigee height: 952 km
apogee height: 991 km
right ascension of ascending node: 89.7158°
argument of perigee: 77.4749°
revolutions per day: 13.77716576
mean anomaly at epoch: 34.7004°
orbit number at epoch: 35539

The dashed part of the orbit path shows where the satellite is in the earth's shadow,  

DLR